Home   Weather   Rostock   Past weeks

Flag for Germany Past Weather in Rostock, Mecklenburg-Western Pomerania, Germany — Yesterday and Last 2 Weeks

Now
64 °F

Partly sunny.


Feels Like: 64 °F
Forecast: 56 / 66 °F
Wind: 13 mph from North

Location: Laage

Current Time: Jul 26, 2017 at 5:05:20 pm

Latest Report: Jul 26, 2017 at 4:26 pm


Visibility: N/A

Pressure: 29.68 "Hg

Humidity: 78%

Dew Point: 57 °F

Location of RostockLocation

Past Weather in Rostock — Graph

°F

Rostock Temperature Yesterday

Maximum temperature yesterday: 63 °F (at 9:20 am)
Minimum temperature yesterday: 57 °F (at 7:20 pm)
Average temperature yesterday: 61 °F

High & Low Weather Summary for the Past Weeks

 TemperatureHumidityPressure
High77 °F (Jul 19, 4:20 pm)100% (Jul 11, 10:20 pm)30.21 "Hg (Jul 11, 10:20 pm)
Low48 °F (Jul 14, 5:20 am)40% (Jul 14, 2:20 pm)29.59 "Hg (Jul 26, 3:20 am)
Average62 °F83%29.92 "Hg
* Reported Jul 11 2:20 pm — Jul 26 2:20 pm, Rostock. Weather by CustomWeather, © 2017

Note: Actual official high and low records may vary slightly from our data, if they occured in-between our weather recording intervals... More about our weather records

Advertising

Rostock Weather History for the Previous 24 Hours

Scroll right to see more
 ConditionsComfort  
Time TempWeatherWind HumidityBarometerVisibility
2:20 pm
Wed, Jul 26
63 °FPartly sunny.10 mph83%29.68 "HgN/A
1:20 pm63 °FPartly sunny.12 mph88%29.65 "HgN/A
12:20 pm63 °FBroken clouds.12 mph88%29.65 "HgN/A
11:20 am63 °FPartly sunny.12 mph88%29.65 "HgN/A
10:20 am61 °FPartly sunny.13 mph94%29.62 "HgN/A
9:20 am61 °FLight rain. Partly sunny.12 mph88%29.62 "HgN/A
8:20 am59 °FLight rain. Partly sunny.12 mph94%29.62 "HgN/A
7:50 am59 °FLight rain. Partly sunny.13 mph94%29.62 "Hg5 mi
7:20 am59 °FRain. Partly sunny.13 mph94%29.62 "Hg4 mi
6:20 am59 °FLight rain. Partly sunny.12 mph94%29.62 "Hg4 mi
5:20 am59 °FLight rain. Fog.13 mph94%29.62 "Hg3 mi
4:20 am59 °FPassing clouds.13 mph94%29.59 "Hg4 mi
3:20 am59 °FPassing clouds.13 mph94%29.59 "Hg4 mi
2:20 am59 °FLow clouds.12 mph94%29.62 "Hg4 mi
1:20 am59 °FLight rain. Passing clouds.13 mph94%29.62 "Hg4 mi
12:20 am59 °FMostly cloudy.15 mph94%29.62 "Hg4 mi
11:20 pm
Tue, Jul 25
59 °FMostly cloudy.16 mph94%29.62 "Hg4 mi
10:20 pm59 °FRain. Mostly cloudy.16 mph94%29.62 "Hg4 mi
9:20 pm59 °FRain. Mostly cloudy.17 mph94%29.62 "Hg4 mi
8:20 pm59 °FRain. Mostly cloudy.20 mph88%29.62 "Hg4 mi
7:20 pm57 °FRain. Partly sunny.20 mph94%29.62 "Hg4 mi
6:20 pm59 °FRain. Mostly cloudy.17 mph94%29.62 "Hg4 mi
5:40 pm59 °FRain. Fog.16 mph94%29.65 "Hg3 mi
5:20 pm59 °FRain. Fog.16 mph94%29.62 "Hg3 mi
5:00 pm59 °FRain. Fog.16 mph94%29.62 "Hg3 mi
Weather by CustomWeather, © 2017

See weather overviewHow to use our weather pages